Weather History for KP68 - October, 2013

Change the Weather History Date:

Sunday, October 13, 2013

  Actual Average Record
Temperature  
Mean Temperature 43 °F 47 °F  
Max Temperature 51 °F 65 °F 80 °F (1996)
Min Temperature 34 °F 29 °F 10 °F (2008)
Degree Days  
Heating Degree Days 22 18  
Month to date heating degree days 238 200  
Since 1 July heating degree days 429 464  
Cooling Degree Days 0 0  
Month to date cooling degree days 0 0  
Year to date cooling degree days 585 288  
Moisture  
Dew Point 36 °F    
Average Humidity 78    
Maximum Humidity 100    
Minimum Humidity 56    
Precipitation  
Precipitation 0.01 in 0.03 in 0.08 in (1981)
Month to date precipitation 0.25 0.26  
Year to date precipitation 6.39 7.13  
Sea Level Pressure  
Sea Level Pressure 29.95 in    
Wind  
Wind Speed 5 mph (North)    
Max Wind Speed 18 mph    
Max Gust Speed 22 mph    
T = Trace of Precipitation, MM = Missing Value Source: NWS Daily Summary

Daily Weather History Graph

Daily Weather History Graph

Search for Another Location

Airport or City:

Trip Planner

Search our weather history database for the weather conditions in past years. The results will help you decide how hot, cold, wet, or windy it might be!

Date:

Astronomy

Oct. 13, 2013 Rise Set
Actual Time 6:52 AM PDT 6:07 PM PDT
Civil Twilight 6:25 AM PDT 6:34 PM PDT
Nautical Twilight 5:54 AM PDT 7:05 PM PDT
Astronomical Twilight 5:22 AM PDT 7:36 PM PDT
Moon 3:00 PM PDT (10/13) 1:08 AM PDT (10/13)
Length of Visible Light 12h 09m
Length of Day
11h 14m
Waxing Gibbous, 70% of the Moon is Illuminated
Oct 13
Waxing Gibbous
Oct 18
Full
Oct 26
Last Quarter
Nov 3
New
Nov 9
First Quarter

Hourly Weather History & Observations

Time (PDT) Temp. Windchill Dew Point Humidity Pressure Visibility Wind Dir Wind Speed Gust Speed Precip Events Conditions
12:53 AM 39.0 °F 34.0 °F 37.0 °F 93% 29.84 in - ESE 6.9 mph - 0.06 in   Unknown
1:53 AM 39.9 °F 37.8 °F 37.0 °F 89% 29.82 in - South 3.5 mph - N/A   Unknown
2:53 AM 39.9 °F - 37.9 °F 93% 29.81 in - Calm Calm - N/A   Unknown
3:53 AM 39.9 °F - 37.9 °F 93% 29.81 in - Calm Calm - 0.01 in   Unknown
4:53 AM 37.9 °F 34.4 °F 36.0 °F 93% 29.83 in - WSW 4.6 mph - N/A   Unknown
5:53 AM 37.0 °F - 36.0 °F 96% 29.84 in - Calm Calm - N/A   Unknown
6:53 AM 35.1 °F 32.2 °F 34.0 °F 96% 29.87 in - North 3.5 mph - N/A   Unknown
7:53 AM 37.0 °F 34.5 °F 36.0 °F 96% 29.90 in - North 3.5 mph - N/A   Unknown
8:53 AM 37.9 °F 35.5 °F 37.9 °F 100% 29.94 in - NNE 3.5 mph - N/A   Unknown
9:53 AM 39.0 °F - 37.9 °F 96% 29.93 in - Calm Calm - N/A   Unknown
10:53 AM 44.1 °F 40.8 °F 37.0 °F 76% 29.95 in - North 5.8 mph - N/A   Unknown
11:53 AM 48.0 °F - 37.0 °F 66% 29.92 in - NE 6.9 mph - N/A   Unknown
12:53 PM 48.9 °F - 37.0 °F 64% 29.92 in - NNW 11.5 mph - N/A   Unknown
1:53 PM 50.0 °F - 35.1 °F 57% 29.92 in - NE 4.6 mph - N/A   Unknown
2:53 PM 44.1 °F 37.1 °F 35.1 °F 71% 29.95 in - WSW 15.0 mph - N/A   Unknown
3:53 PM 46.0 °F 40.2 °F 34.0 °F 63% 29.96 in - NNW 12.7 mph - N/A   Unknown
4:53 PM 45.0 °F 40.6 °F 34.0 °F 65% 30.00 in - NW 8.1 mph - N/A   Unknown
5:53 PM 44.1 °F 40.8 °F 34.0 °F 68% 30.03 in - WSW 5.8 mph - N/A   Unknown
6:53 PM 42.1 °F - 36.0 °F 79% 30.06 in - Calm Calm - N/A   Unknown
7:53 PM 41.0 °F - 36.0 °F 82% 30.08 in - Calm Calm - N/A   Unknown
8:53 PM 39.9 °F 33.9 °F 35.1 °F 83% 30.11 in - NW 9.2 mph - N/A   Unknown
9:53 PM 39.0 °F 35.7 °F 34.0 °F 82% 30.12 in - East 4.6 mph - N/A   Unknown
10:53 PM 37.0 °F 33.3 °F 34.0 °F 89% 30.12 in - SSE 4.6 mph - N/A   Unknown
11:53 PM 37.0 °F - 34.0 °F 89% 30.10 in - Calm Calm - N/A   Unknown